DECAYED

STARLINK-31771, 59620 (Decayed)

Orbit data source: Space-Track

STARLINK-31771, 59620 was a payload satellite owned by SpaceX/Seattle (US) in LEO that was launched on Sun, 28 Apr 2024 UTC via an FALCON 9 launch vehicle from the Air Force Eastern Test Range (AFETR). Payload-class satellites include a variety of spacecraft equipped with specific instruments for various scientific and technological missions. These include communications satellites like Starlink; space stations such as the ISS; scientific satellites like the Hubble; Earth observation satellites from companies like Planet Labs, Umbra, and HawkEye 360; GPS; miniature CubeSats for education and research; and military/defense satellites.

Not visible in the next 10 days
Identifier
59620, 2024-080V
Orbit
Decayed
Country
Flag of USUS
Related business
Manufacturer
SpaceX/Seattle
Mission
Decayed Commercial Communications
Bus & Motor
STARLINK V2M, Unknown motor
Mass
730 kg wet, ~700 kg dry
Launch date (UTC)
2024-04-28 (2 years ago)
Launch vehicle
FALCON 9
Launch site
Air Force Eastern Test Range (AFETR)
Object type
Payload
Rocket body
Debris
Shape & HBR
Box + 2 Pan, 17.7 m
Radar Cross Section
33.884 m², Large (>1 m²)

Expand to show TLE details & history
Last TLE update: 6 months ago

TLE from 6 months ago
0 STARLINK-31771
1 59620U 24080V   25357.68045715  .01478702  15448-2  13565-2 0  9999
2 59620  42.9742  75.7503 0018502  31.1067 329.0906 16.11468559 93268
Epoch: 2025-12-23T16:19Z
TLE epoch observation values (Epoch: 2025-12-23T16:19:51.497Z)
Latitude
-0.00008°
Longitude
98.32492°
Altitude
232.079 km
Speed
7.776 km/s
True Right ascension
05h 03m 00s
True Declination
0° 00' 00"
Sunlit
Object was in full shadow at epoch
Visualization orbit readout
Latitude
Unknown
Longitude
Unknown
Altitude
Unknown
Speed
Unknown
Apparent Right ascension
Unknown
Apparent Declination
Unknown
Sunlit
N/A
Visualization observer readout
Local Sidereal Time
21:24:17
Azimuth
Unknown
Elevation
Unknown
Doppler factor
Unknown
Orbital elements
Apogee altitude
257.092 km
Perigee altitude
232.584 km
Semi-major axis
6,622.975 km
Eccentricity
0.00185
Inclination
42.9742°
RAAN
75.7503°
Arg. of periapsis
31.1067°
True anomaly
328.98147°
Mean anomaly
329.0906°
Eccentric anomaly
329.03606°
Mean motion
4.02683 °/min
Orbital period
89.4 mins
BSTAR
0.0013565
Loading maneuver chart data...
Computing Atmospheric mass density...
Loading historical data...
Loading historical data...
Loading historical data...
Loading historical data...
Loading historical data...
Loading historical data...
Loading historical data...

Documentation

Showing up to 5 results
|